User: anonymous   Login
Location: Muck Cross
(36.7179°N, 78.3678°W)
Time: 09:54:25
(UTC+00:00)
Language:

Courier 1B - Orbit

View from above orbital plane
View from above orbital plane
View from above satellite
View from above satellite

Ground track
Ground track

The orbit data is extracted from the following two-line orbital elements,

1    58U 60013A   23087.86125104  .00000122  00000-0  52617-4 0  9990
2    58  28.3294 348.2124 0164981 187.7522 172.0457 13.46348968 75952
Epoch (UTC): 28 March 2023 20:40:12
Eccentricity: 0.0164981
inclination: 28.3294°
perigee height: 962 km
apogee height: 1209 km
right ascension of ascending node: 348.2124°
argument of perigee: 187.7522°
revolutions per day: 13.46348968
mean anomaly at epoch: 172.0457°
orbit number at epoch: 7595

The dashed part of the orbit path shows where the satellite is in the earth's shadow,  

DLR